Time,TemperatureF,DewpointF,PressureIn,WindDirection,WindDirectionDegrees,WindSpeedMPH,WindSpeedGustMPH,Humidity,HourlyPrecipIn,Conditions,Clouds,dailyrainin,SoftwareType,DateUTC
2013-01-30 00:03:00,34.2,32.7,29.54,NE,34,0.0,2.0,94,0.00,,,0.00,Wunderground v.1.15,2013-01-30 06:03:00,
2013-01-30 00:09:00,34.1,32.3,29.54,WNW,298,1.0,1.0,93,0.00,,,0.00,Wunderground v.1.15,2013-01-30 06:09:00,
2013-01-30 00:15:00,33.8,32.3,29.55,WNW,296,1.0,1.0,94,0.00,,,0.00,Wunderground v.1.15,2013-01-30 06:15:00,
2013-01-30 00:21:00,33.6,32.1,29.55,WNW,294,0.0,1.0,94,0.00,,,0.00,Wunderground v.1.15,2013-01-30 06:21:00,
2013-01-30 00:27:00,33.6,32.1,29.56,NW,310,0.0,2.0,94,0.00,,,0.00,Wunderground v.1.15,2013-01-30 06:27:00,
2013-01-30 00:33:00,33.5,32.0,29.56,NW,311,1.0,2.0,94,0.00,,,0.00,Wunderground v.1.15,2013-01-30 06:33:00,
2013-01-30 00:38:00,33.5,32.0,29.56,NW,311,0.0,2.0,94,0.00,,,0.00,Wunderground v.1.15,2013-01-30 06:38:00,
2013-01-30 00:44:00,33.4,31.9,29.58,NW,311,0.0,1.0,94,0.00,,,0.00,Wunderground v.1.15,2013-01-30 06:44:00,
2013-01-30 00:50:00,33.4,31.9,29.57,NW,311,0.0,0.0,94,0.00,,,0.00,Wunderground v.1.15,2013-01-30 06:50:00,
2013-01-30 00:56:00,33.3,31.8,29.57,West,271,2.0,2.0,94,0.00,,,0.00,Wunderground v.1.15,2013-01-30 06:56:00,
2013-01-30 01:01:00,33.2,31.7,29.58,WNW,287,2.0,3.0,94,0.00,,,0.00,Wunderground v.1.15,2013-01-30 07:01:00,
2013-01-30 01:07:00,33.1,31.8,29.58,WNW,285,0.0,3.0,95,0.00,,,0.00,Wunderground v.1.15,2013-01-30 07:07:00,
2013-01-30 01:13:00,33.0,31.7,29.58,WNW,288,0.0,1.0,95,0.00,,,0.00,Wunderground v.1.15,2013-01-30 07:13:00,
2013-01-30 01:19:00,32.9,31.6,29.58,SSW,193,0.0,1.0,95,0.00,,,0.00,Wunderground v.1.15,2013-01-30 07:19:00,
2013-01-30 01:25:00,32.9,31.6,29.58,SSW,201,1.0,1.0,95,0.00,,,0.00,Wunderground v.1.15,2013-01-30 07:25:00,
2013-01-30 01:31:00,32.8,31.5,29.57,NNW,333,1.0,1.0,95,0.00,,,0.00,Wunderground v.1.15,2013-01-30 07:31:00,
2013-01-30 01:37:00,32.8,31.5,29.57,WNW,284,0.0,2.0,95,0.00,,,0.00,Wunderground v.1.15,2013-01-30 07:37:00,
2013-01-30 01:42:00,32.8,31.5,29.57,West,266,1.0,1.0,95,0.00,,,0.00,Wunderground v.1.15,2013-01-30 07:42:00,
2013-01-30 01:48:00,32.7,31.4,29.57,NW,317,2.0,2.0,95,0.00,,,0.00,Wunderground v.1.15,2013-01-30 07:48:00,
2013-01-30 01:54:00,32.7,31.4,29.57,NNE,26,1.0,2.0,95,0.00,,,0.00,Wunderground v.1.15,2013-01-30 07:54:00,
2013-01-30 02:00:00,32.6,31.3,29.57,NE,55,0.0,1.0,95,0.00,,,0.00,Wunderground v.1.15,2013-01-30 08:00:00,
2013-01-30 02:05:00,32.6,31.3,29.58,North,355,0.0,2.0,95,0.00,,,0.00,Wunderground v.1.15,2013-01-30 08:05:00,
2013-01-30 02:10:00,32.6,31.3,29.58,NW,318,1.0,4.0,95,0.00,,,0.00,Wunderground v.1.15,2013-01-30 08:10:00,
2013-01-30 02:15:00,32.6,31.3,29.58,West,271,0.0,4.0,95,0.00,,,0.00,Wunderground v.1.15,2013-01-30 08:15:00,
2013-01-30 02:20:00,32.6,31.3,29.59,North,5,1.0,1.0,95,0.00,,,0.00,Wunderground v.1.15,2013-01-30 08:20:00,
2013-01-30 02:25:00,32.7,31.4,29.59,North,9,0.0,2.0,95,0.00,,,0.00,Wunderground v.1.15,2013-01-30 08:25:00,
2013-01-30 02:31:00,32.7,31.4,29.59,North,5,1.0,2.0,95,0.00,,,0.00,Wunderground v.1.15,2013-01-30 08:31:00,
2013-01-30 02:36:00,32.7,31.4,29.59,East,97,0.0,3.0,95,0.00,,,0.00,Wunderground v.1.15,2013-01-30 08:36:00,
2013-01-30 02:41:00,32.8,31.3,29.59,South,186,2.0,2.0,94,0.00,,,0.00,Wunderground v.1.15,2013-01-30 08:41:00,
2013-01-30 02:46:00,32.8,31.3,29.59,SW,226,0.0,4.0,94,0.00,,,0.00,Wunderground v.1.15,2013-01-30 08:46:00,
2013-01-30 02:51:00,32.7,31.2,29.59,SE,130,1.0,3.0,94,0.00,,,0.00,Wunderground v.1.15,2013-01-30 08:51:00,
2013-01-30 02:56:00,32.7,31.2,29.59,ENE,68,1.0,3.0,94,0.00,,,0.00,Wunderground v.1.15,2013-01-30 08:56:00,
2013-01-30 03:01:00,32.7,31.2,29.59,North,355,1.0,1.0,94,0.00,,,0.00,Wunderground v.1.15,2013-01-30 09:01:00,
2013-01-30 03:06:00,32.7,31.2,29.59,NNW,341,1.0,4.0,94,0.00,,,0.00,Wunderground v.1.15,2013-01-30 09:06:00,
2013-01-30 03:11:00,32.7,30.9,29.59,NE,44,0.0,2.0,93,0.00,,,0.00,Wunderground v.1.15,2013-01-30 09:11:00,
2013-01-30 03:16:00,32.8,31.3,29.59,NNW,339,1.0,3.0,94,0.00,,,0.00,Wunderground v.1.15,2013-01-30 09:16:00,
2013-01-30 03:21:00,32.7,31.2,29.59,North,9,1.0,2.0,94,0.00,,,0.00,Wunderground v.1.15,2013-01-30 09:21:00,
2013-01-30 03:26:00,32.7,31.2,29.59,NE,40,2.0,5.0,94,0.00,,,0.00,Wunderground v.1.15,2013-01-30 09:26:00,
2013-01-30 03:31:00,32.7,31.2,29.60,NNE,30,1.0,2.0,94,0.00,,,0.00,Wunderground v.1.15,2013-01-30 09:31:00,
2013-01-30 03:36:00,32.8,31.3,29.60,NW,315,2.0,4.0,94,0.00,,,0.00,Wunderground v.1.15,2013-01-30 09:36:00,
2013-01-30 03:41:00,32.6,30.5,29.60,NNW,340,3.0,5.0,92,0.00,,,0.00,Wunderground v.1.15,2013-01-30 09:41:00,
2013-01-30 03:46:00,32.5,30.4,29.61,WSW,238,2.0,5.0,92,0.00,,,0.00,Wunderground v.1.15,2013-01-30 09:46:00,
2013-01-30 03:51:00,32.4,30.3,29.61,NNE,22,0.0,4.0,92,0.00,,,0.00,Wunderground v.1.15,2013-01-30 09:51:00,
2013-01-30 03:56:00,32.3,30.2,29.61,West,265,3.0,6.0,92,0.00,,,0.00,Wunderground v.1.15,2013-01-30 09:56:00,
2013-01-30 04:01:00,32.2,29.9,29.61,WSW,250,3.0,4.0,91,0.00,,,0.00,Wunderground v.1.15,2013-01-30 10:01:00,
2013-01-30 04:06:00,32.1,29.8,29.62,South,175,2.0,5.0,91,0.00,,,0.00,Wunderground v.1.15,2013-01-30 10:06:00,
2013-01-30 04:11:00,31.9,29.8,29.62,NE,44,4.0,5.0,92,0.00,,,0.00,Wunderground v.1.15,2013-01-30 10:11:00,
2013-01-30 04:16:00,31.7,29.6,29.62,WSW,246,2.0,5.0,92,0.00,,,0.00,Wunderground v.1.15,2013-01-30 10:16:00,
2013-01-30 04:21:00,31.6,29.8,29.62,South,181,1.0,3.0,93,0.00,,,0.00,Wunderground v.1.15,2013-01-30 10:21:00,
2013-01-30 04:26:00,31.5,29.7,29.63,NW,323,1.0,5.0,93,0.00,,,0.00,Wunderground v.1.15,2013-01-30 10:26:00,
2013-01-30 04:31:00,31.4,29.6,29.63,North,11,1.0,4.0,93,0.00,,,0.00,Wunderground v.1.15,2013-01-30 10:31:00,
2013-01-30 04:36:00,31.3,29.5,29.64,ENE,61,1.0,4.0,93,0.00,,,0.00,Wunderground v.1.15,2013-01-30 10:36:00,
2013-01-30 04:41:00,31.2,29.4,29.64,North,355,1.0,3.0,93,0.00,,,0.00,Wunderground v.1.15,2013-01-30 10:41:00,
2013-01-30 04:46:00,31.1,29.3,29.64,NE,49,1.0,6.0,93,0.00,,,0.00,Wunderground v.1.15,2013-01-30 10:46:00,
2013-01-30 04:51:00,31.1,29.3,29.64,NW,320,2.0,2.0,93,0.00,,,0.00,Wunderground v.1.15,2013-01-30 10:51:00,
2013-01-30 04:56:00,30.9,28.9,29.65,WSW,240,3.0,4.0,92,0.00,,,0.00,Wunderground v.1.15,2013-01-30 10:56:00,
2013-01-30 05:01:00,30.5,28.2,29.65,WNW,283,1.0,3.0,91,0.00,,,0.00,Wunderground v.1.15,2013-01-30 11:01:00,
2013-01-30 05:06:00,30.1,28.1,29.66,NNW,340,1.0,4.0,92,0.00,,,0.00,Wunderground v.1.15,2013-01-30 11:06:00,
2013-01-30 05:11:00,29.8,27.8,29.67,South,189,1.0,3.0,92,0.00,,,0.00,Wunderground v.1.15,2013-01-30 11:11:00,
2013-01-30 05:16:00,29.6,27.3,29.67,WNW,282,1.0,4.0,91,0.00,,,0.00,Wunderground v.1.15,2013-01-30 11:16:00,
2013-01-30 05:21:00,29.3,26.7,29.67,NNW,333,3.0,7.0,90,0.00,,,0.00,Wunderground v.1.15,2013-01-30 11:21:00,
2013-01-30 05:26:00,29.1,26.8,29.67,WNW,292,2.0,7.0,91,0.00,,,0.00,Wunderground v.1.15,2013-01-30 11:26:00,
2013-01-30 05:31:00,29.1,27.1,29.67,North,5,2.0,3.0,92,0.00,,,0.00,Wunderground v.1.15,2013-01-30 11:31:00,
2013-01-30 05:36:00,29.0,26.7,29.68,WNW,300,1.0,4.0,91,0.00,,,0.00,Wunderground v.1.15,2013-01-30 11:36:00,
2013-01-30 05:41:00,29.1,27.1,29.68,NNW,340,0.0,3.0,92,0.00,,,0.00,Wunderground v.1.15,2013-01-30 11:41:00,
2013-01-30 05:46:00,29.1,27.1,29.68,West,271,1.0,6.0,92,0.00,,,0.00,Wunderground v.1.15,2013-01-30 11:46:00,
2013-01-30 05:51:00,29.0,26.7,29.69,NNW,331,1.0,3.0,91,0.00,,,0.00,Wunderground v.1.15,2013-01-30 11:51:00,
2013-01-30 05:56:00,28.7,26.1,29.70,ENE,70,1.0,6.0,90,0.00,,,0.00,Wunderground v.1.15,2013-01-30 11:56:00,
2013-01-30 06:01:00,28.3,25.7,29.70,ESE,119,2.0,7.0,90,0.00,,,0.00,Wunderground v.1.15,2013-01-30 12:01:00,
2013-01-30 06:06:00,28.1,25.8,29.71,West,261,2.0,8.0,91,0.00,,,0.00,Wunderground v.1.15,2013-01-30 12:06:00,
2013-01-30 06:11:00,27.9,25.3,29.71,WNW,295,3.0,9.0,90,0.00,,,0.00,Wunderground v.1.15,2013-01-30 12:11:00,
2013-01-30 06:16:00,27.8,25.2,29.71,WNW,284,2.0,9.0,90,0.00,,,0.00,Wunderground v.1.15,2013-01-30 12:16:00,
2013-01-30 06:21:00,27.5,24.4,29.72,NNE,12,3.0,3.0,88,0.00,,,0.00,Wunderground v.1.15,2013-01-30 12:21:00,
2013-01-30 06:26:00,27.4,24.6,29.72,NW,305,1.0,4.0,89,0.00,,,0.00,Wunderground v.1.15,2013-01-30 12:26:00,
2013-01-30 06:31:00,27.2,24.4,29.73,NE,44,2.0,7.0,89,0.00,,,0.00,Wunderground v.1.15,2013-01-30 12:31:00,
2013-01-30 06:36:00,27.0,24.2,29.73,West,275,1.0,7.0,89,0.00,,,0.00,Wunderground v.1.15,2013-01-30 12:36:00,
2013-01-30 06:41:00,26.9,23.8,29.73,WSW,257,3.0,6.0,88,0.00,,,0.00,Wunderground v.1.15,2013-01-30 12:41:00,
2013-01-30 06:46:00,26.8,24.0,29.74,WSW,253,2.0,6.0,89,0.00,,,0.00,Wunderground v.1.15,2013-01-30 12:46:00,
2013-01-30 06:51:00,26.7,23.6,29.74,SSE,149,1.0,6.0,88,0.00,,,0.00,Wunderground v.1.15,2013-01-30 12:51:00,
2013-01-30 06:56:00,26.6,23.5,29.75,West,267,1.0,6.0,88,0.00,,,0.00,Wunderground v.1.15,2013-01-30 12:56:00,
2013-01-30 07:01:00,26.5,23.7,29.75,West,281,2.0,11.0,89,0.00,,,0.00,Wunderground v.1.15,2013-01-30 13:01:00,
2013-01-30 07:06:00,26.4,23.6,29.76,NW,324,2.0,11.0,89,0.00,,,0.00,Wunderground v.1.15,2013-01-30 13:06:00,
2013-01-30 07:11:00,26.3,23.5,29.76,West,267,3.0,7.0,89,0.00,,,0.00,Wunderground v.1.15,2013-01-30 13:11:00,
2013-01-30 07:16:00,26.2,23.4,29.76,West,259,2.0,10.0,89,0.00,,,0.00,Wunderground v.1.15,2013-01-30 13:16:00,
2013-01-30 07:21:00,26.2,23.4,29.77,NW,313,2.0,7.0,89,0.00,,,0.00,Wunderground v.1.15,2013-01-30 13:21:00,
2013-01-30 07:26:00,26.1,23.3,29.77,SW,220,3.0,7.0,89,0.00,,,0.00,Wunderground v.1.15,2013-01-30 13:26:00,
2013-01-30 07:31:00,26.0,23.5,29.78,NW,323,1.0,4.0,90,0.00,,,0.00,Wunderground v.1.15,2013-01-30 13:31:00,
2013-01-30 07:36:00,26.0,23.7,29.78,WNW,299,2.0,4.0,91,0.00,,,0.00,Wunderground v.1.15,2013-01-30 13:36:00,
2013-01-30 07:41:00,25.8,23.0,29.79,WNW,289,0.0,5.0,89,0.00,,,0.00,Wunderground v.1.15,2013-01-30 13:41:00,
2013-01-30 07:46:00,25.8,22.7,29.79,WSW,252,0.0,5.0,88,0.00,,,0.00,Wunderground v.1.15,2013-01-30 13:46:00,
2013-01-30 07:51:00,25.9,22.8,29.79,NW,319,2.0,3.0,88,0.00,,,0.00,Wunderground v.1.15,2013-01-30 13:51:00,
2013-01-30 07:56:00,25.9,22.8,29.80,WNW,298,2.0,6.0,88,0.00,,,0.00,Wunderground v.1.15,2013-01-30 13:56:00,
2013-01-30 08:01:00,26.0,22.7,29.80,WSW,253,3.0,8.0,87,0.00,,,0.00,Wunderground v.1.15,2013-01-30 14:01:00,
2013-01-30 08:06:00,25.9,22.6,29.80,ESE,118,1.0,8.0,87,0.00,,,0.00,Wunderground v.1.15,2013-01-30 14:06:00,
2013-01-30 08:11:00,25.8,22.5,29.81,WNW,298,1.0,9.0,87,0.00,,,0.00,Wunderground v.1.15,2013-01-30 14:11:00,
2013-01-30 08:16:00,25.7,22.6,29.81,West,261,1.0,9.0,88,0.00,,,0.00,Wunderground v.1.15,2013-01-30 14:16:00,
2013-01-30 08:21:00,25.7,22.9,29.81,NW,312,2.0,6.0,89,0.00,,,0.00,Wunderground v.1.15,2013-01-30 14:21:00,
2013-01-30 08:26:00,25.7,22.9,29.81,NNW,327,3.0,6.0,89,0.00,,,0.00,Wunderground v.1.15,2013-01-30 14:26:00,
2013-01-30 08:31:00,25.6,22.8,29.82,WNW,303,2.0,3.0,89,0.00,,,0.00,Wunderground v.1.15,2013-01-30 14:31:00,
2013-01-30 08:36:00,25.6,22.5,29.82,South,179,1.0,6.0,88,0.00,,,0.00,Wunderground v.1.15,2013-01-30 14:36:00,
2013-01-30 08:41:00,25.6,22.5,29.82,West,279,1.0,8.0,88,0.00,,,0.00,Wunderground v.1.15,2013-01-30 14:41:00,
2013-01-30 08:46:00,25.6,22.3,29.82,South,182,1.0,8.0,87,0.00,,,0.00,Wunderground v.1.15,2013-01-30 14:46:00,
2013-01-30 08:51:00,25.7,22.4,29.83,West,262,1.0,3.0,87,0.00,,,0.00,Wunderground v.1.15,2013-01-30 14:51:00,
2013-01-30 08:56:00,25.8,22.7,29.83,West,277,2.0,5.0,88,0.00,,,0.00,Wunderground v.1.15,2013-01-30 14:56:00,
2013-01-30 09:01:00,25.7,22.6,29.83,West,270,7.0,7.0,88,0.00,,,0.00,Wunderground v.1.15,2013-01-30 15:01:00,
2013-01-30 09:06:00,25.6,22.5,29.84,West,275,2.0,7.0,88,0.00,,,0.00,Wunderground v.1.15,2013-01-30 15:06:00,
2013-01-30 09:11:00,25.6,22.5,29.84,WSW,244,1.0,3.0,88,0.00,,,0.00,Wunderground v.1.15,2013-01-30 15:11:00,
2013-01-30 09:16:00,25.7,22.6,29.84,West,273,2.0,7.0,88,0.00,,,0.00,Wunderground v.1.15,2013-01-30 15:16:00,
2013-01-30 09:21:00,25.8,22.7,29.85,WSW,249,2.0,5.0,88,0.00,,,0.00,Wunderground v.1.15,2013-01-30 15:21:00,
2013-01-30 09:26:00,25.7,22.1,29.85,West,270,5.0,5.0,86,0.00,,,0.00,Wunderground v.1.15,2013-01-30 15:26:00,
2013-01-30 09:31:00,25.9,22.6,29.85,West,269,1.0,2.0,87,0.00,,,0.00,Wunderground v.1.15,2013-01-30 15:31:00,
2013-01-30 09:36:00,26.0,22.4,29.85,NNE,13,2.0,4.0,86,0.00,,,0.00,Wunderground v.1.15,2013-01-30 15:36:00,
2013-01-30 09:41:00,26.0,22.4,29.86,NW,314,1.0,6.0,86,0.00,,,0.00,Wunderground v.1.15,2013-01-30 15:41:00,
2013-01-30 09:46:00,26.1,22.2,29.86,West,280,1.0,6.0,85,0.00,,,0.00,Wunderground v.1.15,2013-01-30 15:46:00,
2013-01-30 09:51:00,26.3,22.1,29.86,SSE,157,2.0,5.0,84,0.00,,,0.00,Wunderground v.1.15,2013-01-30 15:51:00,
2013-01-30 09:56:00,26.5,22.3,29.86,West,275,0.0,5.0,84,0.00,,,0.00,Wunderground v.1.15,2013-01-30 15:56:00,
2013-01-30 10:01:00,26.6,22.1,29.86,ESE,123,2.0,4.0,83,0.00,,,0.00,Wunderground v.1.15,2013-01-30 16:01:00,
2013-01-30 10:06:00,26.7,22.2,29.86,NNW,344,1.0,7.0,83,0.00,,,0.00,Wunderground v.1.15,2013-01-30 16:06:00,
2013-01-30 10:11:00,26.8,22.3,29.87,NW,308,2.0,4.0,83,0.00,,,0.00,Wunderground v.1.15,2013-01-30 16:11:00,
2013-01-30 10:16:00,26.8,22.0,29.87,NNW,338,2.0,8.0,82,0.00,,,0.00,Wunderground v.1.15,2013-01-30 16:16:00,
2013-01-30 10:21:00,27.0,21.9,29.88,SW,214,2.0,5.0,81,0.00,,,0.00,Wunderground v.1.15,2013-01-30 16:21:00,
2013-01-30 10:26:00,27.0,21.7,29.88,West,261,3.0,6.0,80,0.00,,,0.00,Wunderground v.1.15,2013-01-30 16:26:00,
2013-01-30 10:31:00,27.1,21.7,29.88,NW,304,1.0,4.0,80,0.00,,,0.00,Wunderground v.1.15,2013-01-30 16:31:00,
2013-01-30 10:36:00,27.1,21.5,29.88,WNW,296,2.0,7.0,79,0.00,,,0.00,Wunderground v.1.15,2013-01-30 16:36:00,
2013-01-30 10:41:00,27.2,21.5,29.88,NNE,28,2.0,5.0,79,0.00,,,0.00,Wunderground v.1.15,2013-01-30 16:41:00,
2013-01-30 10:46:00,27.2,21.2,29.89,SE,127,2.0,7.0,78,0.00,,,0.00,Wunderground v.1.15,2013-01-30 16:46:00,
2013-01-30 10:51:00,27.2,20.9,29.89,NNW,327,3.0,6.0,77,0.00,,,0.00,Wunderground v.1.15,2013-01-30 16:51:00,
2013-01-30 10:56:00,27.3,21.0,29.89,West,279,2.0,6.0,77,0.00,,,0.00,Wunderground v.1.15,2013-01-30 16:56:00,
2013-01-30 11:01:00,27.3,20.7,29.89,WNW,290,2.0,5.0,76,0.00,,,0.00,Wunderground v.1.15,2013-01-30 17:01:00,
2013-01-30 11:07:00,27.2,20.9,29.89,West,265,2.0,6.0,77,0.00,,,0.00,Wunderground v.1.15,2013-01-30 17:07:00,
2013-01-30 11:12:00,27.2,20.6,29.90,WSW,249,5.0,10.0,76,0.00,,,0.00,Wunderground v.1.15,2013-01-30 17:12:00,
2013-01-30 11:17:00,27.1,20.5,29.89,ESE,122,2.0,10.0,76,0.00,,,0.00,Wunderground v.1.15,2013-01-30 17:17:00,
2013-01-30 11:22:00,27.0,19.8,29.90,West,275,1.0,8.0,74,0.00,,,0.00,Wunderground v.1.15,2013-01-30 17:22:00,
2013-01-30 11:27:00,27.1,20.2,29.90,West,267,2.0,8.0,75,0.00,,,0.00,Wunderground v.1.15,2013-01-30 17:27:00,
2013-01-30 11:32:00,27.2,20.0,29.90,NE,47,2.0,3.0,74,0.00,,,0.00,Wunderground v.1.15,2013-01-30 17:32:00,
2013-01-30 11:36:00,27.4,20.2,29.90,West,280,5.0,8.0,74,0.00,,,0.00,Wunderground v.1.15,2013-01-30 17:36:00,
2013-01-30 11:41:00,27.3,19.8,29.91,NW,313,2.0,6.0,73,0.00,,,0.00,Wunderground v.1.15,2013-01-30 17:41:00,
2013-01-30 11:47:00,27.2,20.0,29.91,NNE,19,1.0,6.0,74,0.00,,,0.00,Wunderground v.1.15,2013-01-30 17:47:00,
2013-01-30 11:52:00,27.3,20.1,29.91,ENE,76,2.0,5.0,74,0.00,,,0.00,Wunderground v.1.15,2013-01-30 17:52:00,
2013-01-30 11:57:00,27.2,20.0,29.91,ENE,57,2.0,5.0,74,0.00,,,0.00,Wunderground v.1.15,2013-01-30 17:57:00,
2013-01-30 12:02:00,27.3,20.1,29.90,SSW,211,1.0,8.0,74,0.00,,,0.00,Wunderground v.1.15,2013-01-30 18:02:00,
2013-01-30 12:07:00,27.3,19.8,29.90,WSW,242,3.0,12.0,73,0.00,,,0.00,Wunderground v.1.15,2013-01-30 18:07:00,
2013-01-30 12:12:00,27.3,19.8,29.91,SSW,198,1.0,10.0,73,0.00,,,0.00,Wunderground v.1.15,2013-01-30 18:12:00,
2013-01-30 12:17:00,27.3,19.5,29.90,WNW,294,2.0,10.0,72,0.00,,,0.00,Wunderground v.1.15,2013-01-30 18:17:00,
2013-01-30 12:22:00,27.4,20.2,29.91,WSW,250,1.0,5.0,74,0.00,,,0.00,Wunderground v.1.15,2013-01-30 18:22:00,
2013-01-30 12:27:00,27.6,20.4,29.91,North,349,2.0,8.0,74,0.00,,,0.00,Wunderground v.1.15,2013-01-30 18:27:00,
2013-01-30 12:32:00,27.5,20.3,29.90,WSW,252,3.0,7.0,74,0.00,,,0.00,Wunderground v.1.15,2013-01-30 18:32:00,
2013-01-30 12:37:00,27.2,20.0,29.90,SW,227,1.0,7.0,74,0.00,,,0.00,Wunderground v.1.15,2013-01-30 18:37:00,
2013-01-30 12:42:00,27.2,20.3,29.90,North,355,2.0,6.0,75,0.00,,,0.00,Wunderground v.1.15,2013-01-30 18:42:00,
2013-01-30 12:47:00,27.1,20.5,29.90,WNW,282,1.0,6.0,76,0.00,,,0.00,Wunderground v.1.15,2013-01-30 18:47:00,
2013-01-30 12:52:00,26.9,20.3,29.90,West,261,3.0,4.0,76,0.00,,,0.00,Wunderground v.1.15,2013-01-30 18:52:00,
2013-01-30 12:57:00,27.0,20.4,29.90,West,272,2.0,7.0,76,0.00,,,0.00,Wunderground v.1.15,2013-01-30 18:57:00,
2013-01-30 13:02:00,27.0,20.1,29.90,SSW,202,2.0,9.0,75,0.00,,,0.00,Wunderground v.1.15,2013-01-30 19:02:00,
2013-01-30 13:07:00,26.9,19.4,29.90,WNW,296,2.0,9.0,73,0.00,,,0.00,Wunderground v.1.15,2013-01-30 19:07:00,
2013-01-30 13:12:00,27.0,19.2,29.90,ENE,59,1.0,3.0,72,0.00,,,0.00,Wunderground v.1.15,2013-01-30 19:12:00,
2013-01-30 13:17:00,27.1,19.3,29.90,NW,321,2.0,13.0,72,0.00,,,0.00,Wunderground v.1.15,2013-01-30 19:17:00,
2013-01-30 13:22:00,27.4,19.6,29.90,WSW,240,1.0,5.0,72,0.00,,,0.00,Wunderground v.1.15,2013-01-30 19:22:00,
2013-01-30 13:27:00,27.6,19.4,29.90,North,5,7.0,7.0,71,0.00,,,0.00,Wunderground v.1.15,2013-01-30 19:27:00,
2013-01-30 13:32:00,27.5,19.3,29.90,North,360,2.0,7.0,71,0.00,,,0.00,Wunderground v.1.15,2013-01-30 19:32:00,
2013-01-30 13:37:00,27.4,18.9,29.91,NNW,336,2.0,7.0,70,0.00,,,0.00,Wunderground v.1.15,2013-01-30 19:37:00,
2013-01-30 13:42:00,27.3,18.8,29.91,West,269,2.0,7.0,70,0.00,,,0.00,Wunderground v.1.15,2013-01-30 19:42:00,
2013-01-30 13:47:00,27.1,19.3,29.91,WNW,293,2.0,8.0,72,0.00,,,0.00,Wunderground v.1.15,2013-01-30 19:47:00,
2013-01-30 13:52:00,26.8,19.3,29.91,West,275,2.0,9.0,73,0.00,,,0.00,Wunderground v.1.15,2013-01-30 19:52:00,
2013-01-30 13:57:00,26.7,19.2,29.91,WNW,301,2.0,9.0,73,0.00,,,0.00,Wunderground v.1.15,2013-01-30 19:57:00,
2013-01-30 14:02:00,26.7,18.9,29.91,West,265,4.0,11.0,72,0.00,,,0.00,Wunderground v.1.15,2013-01-30 20:02:00,
2013-01-30 14:07:00,26.7,18.9,29.91,WSW,244,1.0,11.0,72,0.00,,,0.00,Wunderground v.1.15,2013-01-30 20:07:00,
2013-01-30 14:12:00,26.8,18.3,29.90,WNW,302,3.0,13.0,70,0.00,,,0.00,Wunderground v.1.15,2013-01-30 20:12:00,
2013-01-30 14:17:00,26.8,18.3,29.91,WSW,257,4.0,13.0,70,0.00,,,0.00,Wunderground v.1.15,2013-01-30 20:17:00,
2013-01-30 14:22:00,26.9,18.4,29.90,SW,229,2.0,8.0,70,0.00,,,0.00,Wunderground v.1.15,2013-01-30 20:22:00,
2013-01-30 14:27:00,27.2,19.0,29.91,West,279,3.0,9.0,71,0.00,,,0.00,Wunderground v.1.15,2013-01-30 20:27:00,
2013-01-30 14:32:00,27.5,18.7,29.91,ESE,104,2.0,8.0,69,0.00,,,0.00,Wunderground v.1.15,2013-01-30 20:32:00,
2013-01-30 14:37:00,27.4,18.9,29.91,West,271,5.0,8.0,70,0.00,,,0.00,Wunderground v.1.15,2013-01-30 20:37:00,
2013-01-30 14:42:00,27.5,19.0,29.92,WSW,248,2.0,5.0,70,0.00,,,0.00,Wunderground v.1.15,2013-01-30 20:42:00,
2013-01-30 14:47:00,27.6,18.4,29.92,SW,217,4.0,9.0,68,0.00,,,0.00,Wunderground v.1.15,2013-01-30 20:47:00,
2013-01-30 14:52:00,28.0,18.8,29.92,West,259,3.0,10.0,68,0.00,,,0.00,Wunderground v.1.15,2013-01-30 20:52:00,
2013-01-30 14:57:00,28.1,18.2,29.92,NW,315,2.0,10.0,66,0.00,,,0.00,Wunderground v.1.15,2013-01-30 20:57:00,
2013-01-30 15:02:00,27.9,18.0,29.92,West,269,4.0,6.0,66,0.00,,,0.00,Wunderground v.1.15,2013-01-30 21:02:00,
2013-01-30 15:07:00,28.1,18.2,29.92,South,183,1.0,9.0,66,0.00,,,0.00,Wunderground v.1.15,2013-01-30 21:07:00,
2013-01-30 15:12:00,27.9,18.0,29.93,South,172,1.0,5.0,66,0.00,,,0.00,Wunderground v.1.15,2013-01-30 21:12:00,
2013-01-30 15:17:00,27.5,17.3,29.93,WNW,292,2.0,11.0,65,0.00,,,0.00,Wunderground v.1.15,2013-01-30 21:17:00,
2013-01-30 15:22:00,27.4,17.5,29.93,SE,135,3.0,9.0,66,0.00,,,0.00,Wunderground v.1.15,2013-01-30 21:22:00,
2013-01-30 15:27:00,27.3,17.4,29.93,West,259,4.0,12.0,66,0.00,,,0.00,Wunderground v.1.15,2013-01-30 21:27:00,
2013-01-30 15:32:00,27.2,17.3,29.93,WNW,302,2.0,4.0,66,0.00,,,0.00,Wunderground v.1.15,2013-01-30 21:32:00,
2013-01-30 15:37:00,27.3,18.1,29.93,NW,313,2.0,8.0,68,0.00,,,0.00,Wunderground v.1.15,2013-01-30 21:37:00,
2013-01-30 15:42:00,27.3,18.5,29.93,SW,228,3.0,4.0,69,0.00,,,0.00,Wunderground v.1.15,2013-01-30 21:42:00,
2013-01-30 15:47:00,27.5,18.3,29.93,WNW,292,3.0,5.0,68,0.00,,,0.00,Wunderground v.1.15,2013-01-30 21:47:00,
2013-01-30 15:52:00,27.4,17.9,29.94,West,261,6.0,9.0,67,0.00,,,0.00,Wunderground v.1.15,2013-01-30 21:52:00,
2013-01-30 15:57:00,27.3,18.5,29.94,WSW,242,0.0,9.0,69,0.00,,,0.00,Wunderground v.1.15,2013-01-30 21:57:00,
2013-01-30 16:02:00,27.4,18.9,29.94,West,277,1.0,4.0,70,0.00,,,0.00,Wunderground v.1.15,2013-01-30 22:02:00,
2013-01-30 16:07:00,27.4,18.9,29.94,WNW,295,4.0,4.0,70,0.00,,,0.00,Wunderground v.1.15,2013-01-30 22:07:00,
2013-01-30 16:12:00,27.4,18.9,29.94,WNW,292,1.0,5.0,70,0.00,,,0.00,Wunderground v.1.15,2013-01-30 22:12:00,
2013-01-30 16:17:00,27.3,18.8,29.94,West,259,3.0,8.0,70,0.00,,,0.00,Wunderground v.1.15,2013-01-30 22:17:00,
2013-01-30 16:22:00,27.2,19.0,29.94,WNW,298,0.0,3.0,71,0.00,,,0.00,Wunderground v.1.15,2013-01-30 22:22:00,
2013-01-30 16:27:00,27.2,19.0,29.94,West,281,1.0,3.0,71,0.00,,,0.00,Wunderground v.1.15,2013-01-30 22:27:00,
2013-01-30 16:32:00,27.2,19.4,29.95,WSW,251,5.0,5.0,72,0.00,,,0.00,Wunderground v.1.15,2013-01-30 22:32:00,
2013-01-30 16:37:00,27.0,19.5,29.95,NW,315,4.0,5.0,73,0.00,,,0.00,Wunderground v.1.15,2013-01-30 22:37:00,
2013-01-30 16:42:00,26.9,19.4,29.95,SW,236,1.0,3.0,73,0.00,,,0.00,Wunderground v.1.15,2013-01-30 22:42:00,
2013-01-30 16:47:00,26.8,19.3,29.95,West,271,1.0,7.0,73,0.00,,,0.00,Wunderground v.1.15,2013-01-30 22:47:00,
2013-01-30 16:52:00,26.7,19.2,29.95,WSW,243,3.0,6.0,73,0.00,,,0.00,Wunderground v.1.15,2013-01-30 22:52:00,
2013-01-30 16:57:00,26.6,19.1,29.95,WNW,293,1.0,6.0,73,0.00,,,0.00,Wunderground v.1.15,2013-01-30 22:57:00,
2013-01-30 17:02:00,26.6,19.4,29.95,WNW,286,1.0,2.0,74,0.00,,,0.00,Wunderground v.1.15,2013-01-30 23:02:00,
2013-01-30 17:07:00,26.6,18.5,29.95,WNW,302,4.0,10.0,71,0.00,,,0.00,Wunderground v.1.15,2013-01-30 23:07:00,
2013-01-30 17:12:00,26.5,18.4,29.96,West,279,0.0,5.0,71,0.00,,,0.00,Wunderground v.1.15,2013-01-30 23:12:00,
2013-01-30 17:17:00,26.5,18.4,29.96,West,262,4.0,5.0,71,0.00,,,0.00,Wunderground v.1.15,2013-01-30 23:17:00,
2013-01-30 17:22:00,26.5,18.0,29.96,WSW,258,1.0,6.0,70,0.00,,,0.00,Wunderground v.1.15,2013-01-30 23:22:00,
2013-01-30 17:27:00,26.4,17.9,29.97,SW,229,3.0,6.0,70,0.00,,,0.00,Wunderground v.1.15,2013-01-30 23:27:00,
2013-01-30 17:32:00,26.3,17.8,29.97,West,273,4.0,4.0,70,0.00,,,0.00,Wunderground v.1.15,2013-01-30 23:32:00,
2013-01-30 17:37:00,26.2,17.7,29.98,West,259,1.0,9.0,70,0.00,,,0.00,Wunderground v.1.15,2013-01-30 23:37:00,
2013-01-30 17:42:00,26.2,17.7,29.98,WNW,282,1.0,5.0,70,0.00,,,0.00,Wunderground v.1.15,2013-01-30 23:42:00,
2013-01-30 17:47:00,26.2,18.1,29.98,WNW,286,1.0,5.0,71,0.00,,,0.00,Wunderground v.1.15,2013-01-30 23:47:00,
2013-01-30 17:52:00,26.2,17.7,29.98,NNW,333,3.0,5.0,70,0.00,,,0.00,Wunderground v.1.15,2013-01-30 23:52:00,
2013-01-30 17:57:00,26.1,18.0,29.98,WNW,302,1.0,5.0,71,0.00,,,0.00,Wunderground v.1.15,2013-01-30 23:57:00,
2013-01-30 18:02:00,26.0,17.9,29.98,WNW,286,2.0,3.0,71,0.00,,,0.00,Wunderground v.1.15,2013-01-31 00:02:00,
2013-01-30 18:07:00,26.0,17.9,29.99,WNW,297,1.0,5.0,71,0.00,,,0.00,Wunderground v.1.15,2013-01-31 00:07:00,
2013-01-30 18:12:00,25.9,17.8,29.99,WSW,248,4.0,4.0,71,0.00,,,0.00,Wunderground v.1.15,2013-01-31 00:12:00,
2013-01-30 18:17:00,25.8,17.7,29.99,West,279,2.0,4.0,71,0.00,,,0.00,Wunderground v.1.15,2013-01-31 00:17:00,
2013-01-30 18:22:00,25.8,17.7,29.99,NW,304,2.0,4.0,71,0.00,,,0.00,Wunderground v.1.15,2013-01-31 00:22:00,
2013-01-30 18:27:00,25.7,17.6,29.99,West,278,1.0,4.0,71,0.00,,,0.00,Wunderground v.1.15,2013-01-31 00:27:00,
2013-01-30 18:32:00,25.8,18.3,29.99,West,278,0.0,1.0,73,0.00,,,0.00,Wunderground v.1.15,2013-01-31 00:32:00,
2013-01-30 18:37:00,25.8,18.0,29.99,West,278,2.0,3.0,72,0.00,,,0.00,Wunderground v.1.15,2013-01-31 00:37:00,
2013-01-30 18:42:00,25.7,17.9,29.99,West,277,1.0,4.0,72,0.00,,,0.00,Wunderground v.1.15,2013-01-31 00:42:00,
2013-01-30 18:47:00,25.7,17.9,29.99,WNW,285,1.0,4.0,72,0.00,,,0.00,Wunderground v.1.15,2013-01-31 00:47:00,
2013-01-30 18:52:00,25.6,17.8,29.99,WNW,288,0.0,2.0,72,0.00,,,0.00,Wunderground v.1.15,2013-01-31 00:52:00,
2013-01-30 18:57:00,25.6,18.1,29.99,WNW,288,1.0,2.0,73,0.00,,,0.00,Wunderground v.1.15,2013-01-31 00:57:00,
2013-01-30 19:02:00,25.6,18.1,29.99,WNW,291,1.0,2.0,73,0.00,,,0.00,Wunderground v.1.15,2013-01-31 01:02:00,
2013-01-30 19:07:00,25.7,18.2,29.99,WNW,290,0.0,3.0,73,0.00,,,0.00,Wunderground v.1.15,2013-01-31 01:07:00,
2013-01-30 19:12:00,25.8,18.3,29.99,WNW,290,1.0,1.0,73,0.00,,,0.00,Wunderground v.1.15,2013-01-31 01:12:00,
2013-01-30 19:17:00,25.8,18.0,29.99,WNW,282,0.0,4.0,72,0.00,,,0.00,Wunderground v.1.15,2013-01-31 01:17:00,
2013-01-30 19:23:00,25.8,18.3,29.99,West,270,0.0,3.0,73,0.00,,,0.00,Wunderground v.1.15,2013-01-31 01:23:00,
2013-01-30 19:28:00,25.8,18.0,29.99,West,271,1.0,3.0,72,0.00,,,0.00,Wunderground v.1.15,2013-01-31 01:28:00,
2013-01-30 19:33:00,25.8,18.0,30.00,West,267,1.0,2.0,72,0.00,,,0.00,Wunderground v.1.15,2013-01-31 01:33:00,
2013-01-30 19:38:00,25.8,18.0,29.99,West,264,1.0,4.0,72,0.00,,,0.00,Wunderground v.1.15,2013-01-31 01:38:00,
2013-01-30 19:43:00,25.8,17.7,30.00,West,272,1.0,3.0,71,0.00,,,0.00,Wunderground v.1.15,2013-01-31 01:43:00,
2013-01-30 19:48:00,25.8,17.7,30.00,West,274,0.0,4.0,71,0.00,,,0.00,Wunderground v.1.15,2013-01-31 01:48:00,
2013-01-30 19:53:00,25.9,17.8,30.00,NNW,347,2.0,5.0,71,0.00,,,0.00,Wunderground v.1.15,2013-01-31 01:53:00,
2013-01-30 19:58:00,25.9,17.5,30.00,West,273,0.0,6.0,70,0.00,,,0.00,Wunderground v.1.15,2013-01-31 01:58:00,
2013-01-30 20:03:00,25.9,17.8,30.00,NW,314,1.0,6.0,71,0.00,,,0.00,Wunderground v.1.15,2013-01-31 02:03:00,
2013-01-30 20:08:00,25.9,17.5,30.00,SSW,194,3.0,6.0,70,0.00,,,0.00,Wunderground v.1.15,2013-01-31 02:08:00,
2013-01-30 20:13:00,25.8,17.4,30.00,West,271,1.0,5.0,70,0.00,,,0.00,Wunderground v.1.15,2013-01-31 02:13:00,
2013-01-30 20:18:00,25.7,17.3,30.00,WNW,283,6.0,7.0,70,0.00,,,0.00,Wunderground v.1.15,2013-01-31 02:18:00,
2013-01-30 20:23:00,25.5,17.1,30.00,WSW,241,2.0,5.0,70,0.00,,,0.00,Wunderground v.1.15,2013-01-31 02:23:00,
2013-01-30 20:28:00,25.4,17.0,30.00,WNW,284,2.0,5.0,70,0.00,,,0.00,Wunderground v.1.15,2013-01-31 02:28:00,
2013-01-30 20:33:00,25.2,17.1,30.00,WNW,296,1.0,4.0,71,0.00,,,0.00,Wunderground v.1.15,2013-01-31 02:33:00,
2013-01-30 20:38:00,25.2,17.1,30.00,WNW,297,1.0,4.0,71,0.00,,,0.00,Wunderground v.1.15,2013-01-31 02:38:00,
2013-01-30 20:43:00,25.0,16.9,30.01,WNW,287,2.0,2.0,71,0.00,,,0.00,Wunderground v.1.15,2013-01-31 02:43:00,
2013-01-30 20:48:00,24.9,16.8,30.01,WNW,287,1.0,3.0,71,0.00,,,0.00,Wunderground v.1.15,2013-01-31 02:48:00,
2013-01-30 20:53:00,24.7,16.6,30.01,West,281,1.0,3.0,71,0.00,,,0.00,Wunderground v.1.15,2013-01-31 02:53:00,
2013-01-30 20:58:00,24.5,16.8,30.01,West,281,1.0,3.0,72,0.00,,,0.00,Wunderground v.1.15,2013-01-31 02:58:00,
2013-01-30 21:03:00,24.4,17.0,30.01,West,281,1.0,2.0,73,0.00,,,0.00,Wunderground v.1.15,2013-01-31 03:03:00,
2013-01-30 21:08:00,24.3,16.9,30.01,West,281,1.0,3.0,73,0.00,,,0.00,Wunderground v.1.15,2013-01-31 03:08:00,
2013-01-30 21:13:00,24.1,17.0,30.02,West,281,0.0,1.0,74,0.00,,,0.00,Wunderground v.1.15,2013-01-31 03:13:00,
2013-01-30 21:18:00,23.9,16.8,30.01,West,281,0.0,1.0,74,0.00,,,0.00,Wunderground v.1.15,2013-01-31 03:18:00,
2013-01-30 21:23:00,23.8,17.0,30.01,West,281,1.0,1.0,75,0.00,,,0.00,Wunderground v.1.15,2013-01-31 03:23:00,
2013-01-30 21:28:00,23.6,17.1,30.01,West,281,0.0,3.0,76,0.00,,,0.00,Wunderground v.1.15,2013-01-31 03:28:00,
2013-01-30 21:33:00,23.4,16.9,30.01,West,281,0.0,2.0,76,0.00,,,0.00,Wunderground v.1.15,2013-01-31 03:33:00,
2013-01-30 21:38:00,23.3,16.9,30.01,West,281,1.0,3.0,76,0.00,,,0.00,Wunderground v.1.15,2013-01-31 03:38:00,
2013-01-30 21:43:00,23.1,17.0,30.01,West,281,0.0,1.0,77,0.00,,,0.00,Wunderground v.1.15,2013-01-31 03:43:00,
2013-01-30 21:48:00,22.9,16.8,30.01,West,281,1.0,2.0,77,0.00,,,0.00,Wunderground v.1.15,2013-01-31 03:48:00,
2013-01-30 21:53:00,22.8,16.7,30.01,West,281,1.0,3.0,77,0.00,,,0.00,Wunderground v.1.15,2013-01-31 03:53:00,
2013-01-30 21:58:00,22.6,16.5,30.01,West,281,0.0,3.0,77,0.00,,,0.00,Wunderground v.1.15,2013-01-31 03:58:00,
2013-01-30 22:03:00,22.5,16.7,30.01,West,281,1.0,2.0,78,0.00,,,0.00,Wunderground v.1.15,2013-01-31 04:03:00,
2013-01-30 22:08:00,22.4,16.6,30.00,West,281,0.0,2.0,78,0.00,,,0.00,Wunderground v.1.15,2013-01-31 04:08:00,
2013-01-30 22:13:00,22.2,16.4,30.00,West,281,0.0,1.0,78,0.00,,,0.00,Wunderground v.1.15,2013-01-31 04:13:00,
2013-01-30 22:18:00,22.1,16.6,30.00,West,281,1.0,2.0,79,0.00,,,0.00,Wunderground v.1.15,2013-01-31 04:18:00,
2013-01-30 22:23:00,22.0,16.5,30.00,West,281,0.0,2.0,79,0.00,,,0.00,Wunderground v.1.15,2013-01-31 04:23:00,
2013-01-30 22:28:00,21.9,16.4,30.00,West,281,1.0,2.0,79,0.00,,,0.00,Wunderground v.1.15,2013-01-31 04:28:00,
2013-01-30 22:33:00,21.8,16.3,30.00,West,281,0.0,2.0,79,0.00,,,0.00,Wunderground v.1.15,2013-01-31 04:33:00,
2013-01-30 22:38:00,21.7,16.2,30.00,West,281,0.0,2.0,79,0.00,,,0.00,Wunderground v.1.15,2013-01-31 04:38:00,
2013-01-30 22:43:00,21.6,16.1,30.00,West,281,0.0,2.0,79,0.00,,,0.00,Wunderground v.1.15,2013-01-31 04:43:00,
2013-01-30 22:48:00,21.5,16.0,30.00,West,281,1.0,2.0,79,0.00,,,0.00,Wunderground v.1.15,2013-01-31 04:48:00,
2013-01-30 22:53:00,21.3,16.1,30.00,West,281,0.0,2.0,80,0.00,,,0.00,Wunderground v.1.15,2013-01-31 04:53:00,
2013-01-30 22:58:00,21.1,15.9,30.00,West,281,0.0,3.0,80,0.00,,,0.00,Wunderground v.1.15,2013-01-31 04:58:00,
2013-01-30 23:00:00,21.1,15.9,30.00,West,281,0.0,1.0,80,0.00,,,0.00,Wunderground v.1.15,2013-01-31 05:00:00,
2013-01-30 23:01:00,21.1,15.9,30.00,West,281,0.0,1.0,80,0.00,,,0.00,Wunderground v.1.15,2013-01-31 05:01:00,
2013-01-30 23:03:00,21.0,15.8,30.00,West,281,0.0,1.0,80,0.00,,,0.00,Wunderground v.1.15,2013-01-31 05:03:00,
2013-01-30 23:08:00,20.9,15.7,30.00,West,281,1.0,2.0,80,0.00,,,0.00,Wunderground v.1.15,2013-01-31 05:08:00,
2013-01-30 23:13:00,20.7,15.5,30.00,West,281,0.0,2.0,80,0.00,,,0.00,Wunderground v.1.15,2013-01-31 05:13:00,
2013-01-30 23:18:00,20.6,15.4,30.00,West,281,1.0,2.0,80,0.00,,,0.00,Wunderground v.1.15,2013-01-31 05:18:00,
2013-01-30 23:23:00,20.6,15.7,30.00,West,281,0.0,1.0,81,0.00,,,0.00,Wunderground v.1.15,2013-01-31 05:23:00,
2013-01-30 23:28:00,20.5,15.6,30.00,West,281,0.0,2.0,81,0.00,,,0.00,Wunderground v.1.15,2013-01-31 05:28:00,
2013-01-30 23:33:00,20.5,15.6,30.00,West,281,0.0,1.0,81,0.00,,,0.00,Wunderground v.1.15,2013-01-31 05:33:00,
2013-01-30 23:38:00,20.4,15.2,30.00,West,281,0.0,2.0,80,0.00,,,0.00,Wunderground v.1.15,2013-01-31 05:38:00,
2013-01-30 23:43:00,20.3,15.1,30.00,West,281,0.0,2.0,80,0.00,,,0.00,Wunderground v.1.15,2013-01-31 05:43:00,
2013-01-30 23:48:00,20.3,15.4,30.00,West,281,0.0,2.0,81,0.00,,,0.00,Wunderground v.1.15,2013-01-31 05:48:00,
2013-01-30 23:53:00,20.2,15.3,30.00,West,281,0.0,2.0,81,0.00,,,0.00,Wunderground v.1.15,2013-01-31 05:53:00,
2013-01-30 23:58:00,20.2,15.3,30.00,West,281,0.0,2.0,81,0.00,,,0.00,Wunderground v.1.15,2013-01-31 05:58:00,